Change the Weather History Date:

Thursday, May 16, 2013

  Actual Average Record
Temperature  
Mean Temperature 62 °F -  
Max Temperature 76 °F 72 °F 82 °F (2007)
Min Temperature 48 °F 45 °F 44 °F (2004)
Degree Days  
Heating Degree Days 3    
Growing Degree Days 12 (Base 50)    
Moisture  
Dew Point 48 °F    
Average Humidity 61    
Maximum Humidity 77    
Minimum Humidity 29    
Precipitation  
Precipitation 0.00 in 0.01 in - ()
Sea Level Pressure  
Sea Level Pressure 30.24 in    
Wind  
Wind Speed 7 mph ()    
Max Wind Speed 13 mph    
Max Gust Speed -    
Visibility 17.3 miles    
Events      
Averages and records for this station are not official NWS values.
T = Trace of Precipitation, MM = Missing Value Source: Averaged Metar Reports

Daily Weather History Graph

Daily Weather History Graph

Search for Another Location

Airport or City:

Trip Planner

Search our weather history database for the weather conditions in past years. The results will help you decide how hot, cold, wet, or windy it might be!

Date:

Astronomy

May. 16, 2013 Rise Set
Actual Time 6:13 AM CAT 5:29 PM CAT
Civil Twilight 5:50 AM CAT 5:52 PM CAT
Nautical Twilight 5:24 AM CAT 6:19 PM CAT
Astronomical Twilight 4:58 AM CAT 6:45 PM CAT
Moon 11:02 AM CAT (5/16) 10:48 PM CAT (5/16)
Length of Visible Light 12h 01m
Length of Day
11h 15m
Waxing Crescent, 33% of the Moon is Illuminated
May 16
Waxing Crescent
May 18
First Quarter
May 25
Full
May 31
Last Quarter
Jun 8
New

Hourly Weather History & Observations

Time (CAT) Temp. Dew Point Humidity Pressure Visibility Wind Dir Wind Speed Gust Speed Precip Events Conditions
12:00 AM 53.6 °F 42.8 °F 67% 30.24 in - ENE 9.2 mph - N/A   Clear
1:00 AM 53.6 °F 42.8 °F 67% 30.24 in - ENE 9.2 mph - N/A   Clear
2:00 AM 53 °F 42 °F 56%  in 19 mi ENE 9.2 mph - -  
2:00 AM 53.6 °F 42.8 °F 67% 30.24 in - ENE 9.2 mph - N/A   Clear
3:00 AM 50.0 °F 42.8 °F 76% 30.21 in - East 6.9 mph - N/A   Clear
5:00 AM 51.8 °F 42.8 °F 71% 30.21 in - ENE 8.1 mph - N/A   Clear
6:00 AM 51.8 °F 44.6 °F 76% 30.24 in - ENE 8.1 mph - N/A   Clear
7:00 AM 53.6 °F 46.4 °F 77% 30.27 in - ENE 6.9 mph - N/A   Clear
8:00 AM 60 °F 51 °F 65%  in 12 mi ENE 10.4 mph - -   Haze
8:00 AM 60.8 °F 51.8 °F 72% 30.27 in - ENE 10.4 mph - N/A   Clear
9:00 AM 64.4 °F 51.8 °F 64% 30.30 in - NE 12.7 mph - N/A   Clear
10:00 AM 66.2 °F 51.8 °F 60% 30.30 in - ENE 11.5 mph - N/A   Clear
11:00 AM 69.8 °F 51.8 °F 53% 30.27 in - NNE 8.1 mph - N/A   Clear
12:00 PM 69.8 °F 51.8 °F 53% 30.24 in - North 4.6 mph - N/A   Clear
1:00 PM 69.8 °F 51.8 °F 53% 30.24 in - North 8.1 mph - N/A   Clear
2:00 PM 75 °F 49 °F 29%  in 19 mi North 5.8 mph - -   Partly Cloudy
2:00 PM 75.2 °F 50.0 °F 41% 30.21 in - North 5.8 mph - N/A   Clear
3:00 PM 75.2 °F 48.2 °F 38% 30.18 in - North 5.8 mph - N/A   Clear
4:00 PM 75.2 °F 48.2 °F 38% 30.18 in - North 8.1 mph - N/A   Clear
5:00 PM 71.6 °F 50.0 °F 46% 30.18 in - NE 5.8 mph - N/A   Clear
6:00 PM 68.0 °F 50.0 °F 52% 30.21 in - NE 8.1 mph - N/A   Clear
8:00 PM 60 °F 51 °F 65%  in 19 mi East 6.9 mph - -   Scattered Clouds
8:00 PM 59.0 °F 51.8 °F 77% 30.24 in - East 6.9 mph - N/A   Clear
9:00 PM 59.0 °F 51.8 °F 77% 30.27 in - ENE 6.9 mph - N/A   Clear
11:00 PM 59.0 °F 51.8 °F 77% 30.27 in - ENE 6.9 mph - N/A   Clear